Meteopurmerend
purmerend
Purmerend - Baaienwijk



My webcam  My webcam


waarschuwing voor Onweer Meer informatie blitzortung!


Regen radar Meer informatie rain snow radar


Bezoek onze andere website:

CandyAppleRed WebdesignWebdesign Purmerend Candy Apple Red

MeteopurmerendBlog

Template documentation
and downloads



Onweer van: 19-06-2019 10:00 tot: 23:00 waarschuwing voor: Onweer niveau: Geel info button
Enkele onweersbuien, mogelijk met hagel en windstoten tot ca. 75 km/uur.Verkeer en buitenactiviteiten kunnen hinder ondervinden.Mijd open water en open gebied, schuil niet onder bomen.Volg weerberichten en waarschuwingen.

15 daagse weersverwachting Villeurbanne (FR)

  • Overzicht
  • Per uur
  • 15 dagen
  • Extra
  • Vergelijk
  • Kaarten
  • Dagkaart
  • Meer »
  • Info
  • Statistieken
  • Directe link
    Temp 6h Neerslag Wind  
 05:51     21:33    Daglengte: 15:42 Vandaag
14:00
28°
 
7
20:00
26°
 
2
 05:52     21:33    Daglengte: 15:41 Morgen
02:00
19°
3.6 mm
1
warningclass
08:00
19°
4.0 mm
1
warningclass
14:00
23°
0.8 mm
2
20:00
23°
1.2 mm
2
 05:52     21:34    Daglengte: 15:42 Vrijdag 21 Jun
02:00
18°
1.6 mm
2
08:00
18°
 
3
14:00
24°
 
4
20:00
23°
 
3
 05:52     21:34    Daglengte: 15:42 Zaterdag 22 Jun
02:00
17°
13.1 mm
3
08:00
16°
14.9 mm
3
Locatie info
Region: Rhône-Alpes
Latitude: 45.7696°N
Longitude: 4.8791°E
173 masl
Postcode: 69100
Temp/Neerslag /Baro Onweer/Dauwpunt
    Temp Baro 1h Neerslag Dauwpunt Wind UV Bewolking  
 05:51     21:33    Daglengte: 15:42 Vandaag
13:00
28°
Voelt als: 27.0°
1011.2 hPa   9.9°
7
Windvlaag: 5.7 m/s
14%
14:00
28°
Voelt als: 27.5°
1010.7 hPa   9.7°
7
Windvlaag: 5.4 m/s
29%
15:00
29°
Voelt als: 28.0°
1010.1 hPa   9.8°
7
Windvlaag: 5.2 m/s
25%
16:00
29°
Voelt als: 28.3°
1009.6 hPa   10.9°
7
Windvlaag: 5.2 m/s
45%
17:00
30°
Voelt als: 28.6°
1009.5 hPa   11.7°
6
Windvlaag: 5.4 m/s
48%
18:00
29°
Voelt als: 28.1°
1009.5 hPa
18%
12.3°
5
Windvlaag: 4.1 m/s
61%
19:00
27°
1009.9 hPa
23%
15.5°
3
Windvlaag: -0.9 m/s
64%
20:00
26°
1010.5 hPa
21%
16.8°
2
Windvlaag: -1.7 m/s
69%
21:00
24°
1011.3 hPa
26%
17.1°
2
Windvlaag: -1.7 m/s
81%
22:00
23°
1012.3 hPa
36%
18.3°
2
Windvlaag: -1 m/s
71%
23:00
21°
1013.4 hPa 1.5 mm
82%
18.3°
1
Windvlaag: 0.2 m/s
66% warningclass
 05:52     21:33    Daglengte: 15:41 Morgen
00:00
20°
1013.5 hPa 1.1 mm
82%
18.0°
1
Windvlaag: 0.2 m/s
54%
01:00
20°
1013.9 hPa 0.9 mm
82%
18.0°
1
Windvlaag: 0.3 m/s
61% warningclass
02:00
19°
1013.8 hPa
82%
17.6°
1
Windvlaag: 0.1 m/s
71% warningclass
03:00
19°
1013.8 hPa
82%
17.1°
1
Windvlaag: -0.1 m/s
46%
04:00
18°
1013.6 hPa
82%
16.9°
1
Windvlaag: -0.6 m/s
65%
05:00
18°
1013.8 hPa 0.9 mm
82%
16.7°
1
Windvlaag: -0.5 m/s
55% warningclass
06:00
18°
1014.1 hPa 1.3 mm
82%
16.7°
1
Windvlaag: -0.3 m/s
63% warningclass
07:00
18°
1014.3 hPa 0.8 mm
82%
16.5°
1
Windvlaag: -0.2 m/s
63%
08:00
19°
1014.5 hPa 1.0 mm
79%
16.6°
1
Windvlaag: -0.7 m/s
59% warningclass
09:00
20°
1014.8 hPa
77%
16.7°
1
Windvlaag: -1.2 m/s
42%
10:00
20°
1014.9 hPa
82%
16.0°
1
Windvlaag: -1.3 m/s
46% warningclass
11:00
21°
1014.8 hPa 0.8 mm
81%
15.9°
1
Windvlaag: -1.1 m/s
42%
12:00
22°
1014.8 hPa
78%
16.3°
1
Windvlaag: -1.2 m/s
37%
13:00
23°
1014.7 hPa
81%
16.5°
2
Windvlaag: -0.8 m/s
45%
14:00
23°
1014.8 hPa
82%
16.5°
2
Windvlaag: -0.6 m/s
37%
15:00
24°
1014.5 hPa
44%
16.1°
2
Windvlaag: -0.7 m/s
44%
16:00
24°
1014.2 hPa
73%
15.7°
2
Windvlaag: -1.3 m/s
59%
17:00
24°
1014.2 hPa 1.2 mm
76%
16.6°
3
Windvlaag: -1.5 m/s
69% warningclass
18:00
24°
1014.1 hPa
37%
16.0°
2
Windvlaag: -0.8 m/s
69%
19:00
23°
1014.2 hPa
24%
15.6°
2
Windvlaag: -0.9 m/s
68%
20:00
23°
1014.4 hPa
17%
15.6°
2
Windvlaag: -0.7 m/s
41%
21:00
22°
1014.8 hPa 1.6 mm
16%
16.5°
2
Windvlaag: -1.7 m/s
75%
22:00
20°
1015.3 hPa
55%
16.2°
2
Windvlaag: -1.8 m/s
77%
23:00
20°
1015.5 hPa
15%
16.1°
2
Windvlaag: -1.5 m/s
86%
 05:52     21:34    Daglengte: 15:42 Vrijdag 21 Jun
00:00
19°
1015.7 hPa
18%
16.1°
2
Windvlaag: -1.3 m/s
87%
01:00
19°
1015.8 hPa
73%
16.1°
2
Windvlaag: -1 m/s
84%
02:00
18°
1015.7 hPa
80%
15.4°
2
Windvlaag: -1.1 m/s
81%
03:00
18°
1015.7 hPa
75%
14.3°
3
Windvlaag: -0.9 m/s
89%
04:00
18°
1015.8 hPa
27%
14.3°
3
Windvlaag: -1.2 m/s
71%
05:00
17°
1015.9 hPa
14%
14.8°
3
Windvlaag: -1.3 m/s
68%
06:00
17°
1016.1 hPa
14%
15.0°
3
Windvlaag: -1.3 m/s
50%
07:00
17°
1016.5 hPa
14%
15.2°
3
Windvlaag: -1.4 m/s
70%
08:00
18°
1016.8 hPa
14%
15.4°
3
Windvlaag: -2.1 m/s
58%
09:00
19°
1017.1 hPa
14%
15.7°
4
Windvlaag: -2.3 m/s
40%
10:00
20°
1017.1 hPa
14%
15.9°
4
Windvlaag: -2.3 m/s
43%
11:00
21°
1017.1 hPa
21%
15.5°
4
Windvlaag: -2.9 m/s
60%
12:00
23°
1016.9 hPa
21%
14.6°
4
Windvlaag: -3.5 m/s
91%
13:00
24°
1016.5 hPa
21%
14.4°
4
Windvlaag: -3.6 m/s
85%
14:00
24°
1016.1 hPa
21%
14.8°
4
Windvlaag: -3.7 m/s
97%
15:00
24°
1015.5 hPa
21%
15.3°
4
Windvlaag: -3.9 m/s
94%
16:00
24°
1015.1 hPa
21%
15.4°
4
Windvlaag: -3.9 m/s
91%
17:00
24°
1014.9 hPa
22%
15.2°
3
Windvlaag: -4 m/s
81%
18:00
24°
1015.1 hPa
70%
16.0°
4
Windvlaag: -3.9 m/s
75%
19:00
24°
1015.0 hPa
84%
16.4°
3
Windvlaag: -3.8 m/s
79%
20:00
23°
1015.2 hPa
88%
17.0°
3
Windvlaag: -3.5 m/s
94%
21:00
21°
1015.3 hPa 1.6 mm
95%
16.9°
3
Windvlaag: -2.7 m/s
97%
22:00
20°
1015.6 hPa 2.0 mm
96%
16.7°
3
Windvlaag: -2.4 m/s
99%
23:00
19°
1015.8 hPa 1.7 mm
100%
16.5°
2
Windvlaag: -1.8 m/s
100%
 05:52     21:34    Daglengte: 15:42 Zaterdag 22 Jun
00:00
19°
1015.8 hPa 3.1 mm
100%
16.3°
3
Windvlaag: -2.1 m/s
90%
01:00
18°
1016.0 hPa 2.2 mm
100%
15.8°
3
Windvlaag: -1.4 m/s
97%
02:00
17°
1016.0 hPa 2.3 mm
100%
15.0°
3
Windvlaag: -1.3 m/s
88%
03:00
17°
1016.0 hPa 3.2 mm
100%
14.8°
3
Windvlaag: -0.5 m/s
91%
04:00
16°
1016.0 hPa 2.9 mm
100%
14.4°
3
Windvlaag: -0.8 m/s
93%
05:00
16°
1016.2 hPa 5.0 mm
100%
14.4°
3
Windvlaag: 0.3 m/s
100%
06:00
16°
1016.4 hPa 3.8 mm
100%
14.2°
3
Windvlaag: -0.3 m/s
92%
07:00
16°
1016.6 hPa
94%
13.6°
3
Windvlaag: 0.1 m/s
76%
08:00
16°
1017.1 hPa
93%
13.1°
3
Windvlaag: -0 m/s
43%
09:00
17°
1017.0 hPa 5.8 mm
97%
13.2°
3
Windvlaag: 5.8 m/s
53%
10:00
18°
1016.9 hPa
77%
13.4°
3
Windvlaag: 4.7 m/s
64%
11:00
19°
1016.8 hPa
21%
13.5°
3
Windvlaag: 4.8 m/s
69%
12:00
20°
1016.7 hPa
24%
13.5°
3
Windvlaag: 5.7 m/s
75%
Temp/Neerslag /Baro Onweer/Dauwpunt
    Temp Baro Neerslag Dauwpunt Wind Bewolking  
 05:51     21:33    Daglengte: 15:42 Vandaag
14:00
28°
Voelt als: 27.5°
1010.7 hPa   9.7°
7
29%
17:00
30°
Voelt als: 28.6°
1009.5 hPa   11.7°
6
48%
20:00
26°
1010.5 hPa   16.8°
2
69%
23:00
21°
1013.4 hPa 1.5 mm 18.3°
1
66% warningclass
 05:52     21:33    Daglengte: 15:41 Morgen
02:00
19°
1013.8 hPa 2.1 mm 17.6°
1
71% warningclass
05:00
18°
1013.8 hPa 0.9 mm 16.7°
1
55% warningclass
08:00
19°
1014.5 hPa 3.1 mm 16.6°
1
59% warningclass
11:00
21°
1014.8 hPa 0.8 mm 15.9°
1
42%
14:00
23°
1014.8 hPa   16.5°
2
37%
17:00
24°
1014.2 hPa 1.2 mm 16.6°
3
69% warningclass
20:00
23°
1014.4 hPa   15.6°
2
41%
23:00
20°
1015.5 hPa 1.6 mm 16.1°
2
86%
 05:52     21:34    Daglengte: 15:42 Vrijdag 21 Jun
02:00
18°
1015.7 hPa   15.4°
2
81%
05:00
17°
1015.9 hPa   14.8°
3
68%
08:00
18°
1016.8 hPa   15.4°
3
58%
11:00
21°
1017.1 hPa   15.5°
4
60%
14:00
24°
1016.1 hPa   14.8°
4
97%
17:00
24°
1014.9 hPa   15.2°
3
81%
20:00
23°
1015.2 hPa   17.0°
3
94%
23:00
19°
1015.8 hPa 5.3 mm 16.5°
2
100%
 05:52     21:34    Daglengte: 15:42 Zaterdag 22 Jun
02:00
17°
1016.0 hPa 7.7 mm 15.0°
3
88%
05:00
16°
1016.2 hPa 11.1 mm 14.4°
3
100%
08:00
16°
1017.1 hPa 3.8 mm 13.1°
3
43%
11:00
19°
1016.8 hPa 5.8 mm 13.5°
3
69%
14:00
22°
1016.4 hPa   13.1°
3
92%
17:00
22°
1016.3 hPa 13.3 mm 14.8°
3
90%
20:00
22°
1016.4 hPa 13.4 mm 15.2°
3
90%
23:00
19°
1016.9 hPa 13.4 mm 15.0°
2
46%
 05:52     21:34    Daglengte: 15:42 Zondag 23 Jun
02:00
16°
1017.2 hPa 13.4 mm 14.5°
2
2%
05:00
17°
1017.1 hPa 13.4 mm 14.8°
2
21%
08:00
18°
1017.1 hPa 13.4 mm 15.3°
1
39%
11:00
22°
1016.7 hPa 13.4 mm 16.1°
1
50%
14:00
26°
1016.4 hPa 13.4 mm 15.9°
1
61%
17:00
26°
1015.7 hPa 13.4 mm 17.1°
1
72%
20:00
26°
1015.2 hPa 13.4 mm 18.2°
1
82%
23:00
23°
1016.0 hPa 13.4 mm 17.5°
1
41%
 05:53     21:34    Daglengte: 15:41 Maandag 24 Jun
02:00
20°
1016.7 hPa 13.4 mm 16.5°
1
0%
05:00
19°
1017.0 hPa 13.4 mm 16.4°
1
1%
08:00
19°
1017.3 hPa 13.4 mm 16.6°
1
2%
11:00
25°
1016.8 hPa 13.4 mm 17.2°
2
40%
14:00
31°
Voelt als: 30.5°
1016.2 hPa 13.4 mm 15.0°
4
78%
17:00
30°
Voelt als: 30.0°
1015.8 hPa 13.4 mm 16.0°
3
53%
20:00
29°
1015.6 hPa 13.4 mm 16.6°
3
28%
23:00
25°
1017.0 hPa 13.4 mm 15.2°
3
25%
 05:53     21:34    Daglengte: 15:41 Dinsdag 25 Jun
02:00
22°
1018.2 hPa 13.4 mm 13.6°
4
22%
05:00
22°
1018.7 hPa 13.4 mm 14.0°
3
11%
08:00
22°
1019.3 hPa 13.4 mm 14.6°
2
1%
11:00
27°
1018.6 hPa 13.4 mm 15.3°
4
13%
14:00
33°
Voelt als: 32.1°
1017.8 hPa 13.4 mm 14.3°
6
24%
17:00
32°
1017.1 hPa 13.4 mm 16.3°
4
13%
20:00
31°
1016.6 hPa 13.4 mm 18.0°
3
1%
23:00
27°
1017.8 hPa 13.4 mm 16.4°
4
41%
 05:53     21:34    Daglengte: 15:41 Woensdag 26 Jun
02:00
24°
1018.8 hPa 13.4 mm 14.7°
4
82%
05:00
24°
1019.0 hPa 13.4 mm 15.3°
4
43%
08:00
24°
1019.3 hPa 13.4 mm 16.3°
3
4%
11:00
29°
1018.7 hPa   17.1°
5
2%
14:00
34°
1018.0 hPa 26.8 mm 16.8°
7
0%
20:00
32°
1016.5 hPa 26.8 mm 18.4°
4
0%
 05:54     21:34    Daglengte: 15:40 Donderdag 27 Jun
02:00
25°
1018.3 hPa 26.8 mm 15.5°
5
0%
08:00
25°
1018.4 hPa 26.8 mm 16.8°
3
0%
14:00
35°
1016.7 hPa 26.8 mm 16.7°
6
0%
20:00
33°
1014.9 hPa 26.8 mm 17.7°
4
0%
 05:54     21:34    Daglengte: 15:40 Vrijdag 28 Jun
02:00
25°
1016.7 hPa 26.8 mm 15.1°
4
1%
08:00
24°
1016.7 hPa 26.8 mm 16.6°
3
0%
14:00
35°
Voelt als: 34.9°
1014.6 hPa 26.8 mm 15.2°
4
0%
20:00
33°
1012.1 hPa 26.8 mm 16.2°
3
0%
 05:55     21:34    Daglengte: 15:39 Zaterdag 29 Jun
02:00
25°
1013.7 hPa 26.8 mm 14.4°
5
0%
08:00
20°
1014.1 hPa 0.1 mm 16.1°
0
19%
14:00
28°
1012.6 hPa 0.2 mm 16.9°
1
18%
20:00
26°
1012.5 hPa 0.6 mm 19.8°
1
20%
 05:55     21:34    Daglengte: 15:39 Zondag 30 Jun
02:00
18°
1014.3 hPa 0.4 mm 15.4°
0
21%
08:00
19°
1014.6 hPa 0.7 mm 16.7°
1
32%
14:00
27°
1013.8 hPa 0.2 mm 17.2°
1
26%
20:00
25°
1013.7 hPa 1.2 mm 18.9°
2
30%
 05:56     21:34    Daglengte: 15:38 Maandag 01 Jul
02:00
17°
1015.7 hPa 0.5 mm 14.4°
1
26%
08:00
18°
1015.6 hPa 0.6 mm 15.1°
1
34%
14:00
24°
1014.6 hPa 0.8 mm 15.2°
2
38%
20:00
22°
1014.7 hPa 1.6 mm 17.0°
2
38%
 05:57     21:33    Daglengte: 15:36 Dinsdag 02 Jul
02:00
15°
1016.6 hPa 0.6 mm 13.1°
1
26%
08:00
16°
1016.4 hPa 0.3 mm 13.7°
1
33%
14:00
23°
1015.1 hPa 1.0 mm 14.2°
2
36%
20:00
21°
1015.3 hPa 1.7 mm 15.7°
3
36%
 05:57     21:33    Daglengte: 15:36 Woensdag 03 Jul
02:00
14°
1017.4 hPa 1.1 mm 12.2°
1
27%
08:00
15°
1017.4 hPa 0.4 mm 12.9°
2
39%
14:00
22°
1016.3 hPa 0.5 mm 13.5°
3
43%
20:00
21°
1016.3 hPa 0.7 mm 15.3°
3
33%
 05:58     21:33    Daglengte: 15:35 Donderdag 04 Jul
02:00
14°
1018.0 hPa 0.6 mm 11.8°
2
24%
08:00
15°
1018.0 hPa 0.6 mm 12.8°
2
26%
  CAPE Lifted Index Hail Supercell Tornado SRH 3km CL BTM PRES CL TOP PRES Swiss DWD icon SMHI TS
 05:51     21:33    Daglengte: 15:42 Vandaag
13:00 0 J/kg 1.2 K 0 % 0 % 0 % 0 m²/s² 0 0 2.64 1
14:00 1 J/kg -0.3 K 0 % 0 % 0 % 0 m²/s² 0 0 1.44 2
15:00 104 J/kg -1.4 K 0 % 0 % 0 % 0 m²/s² 0 0 1.21 1
16:00 379 J/kg -2.5 K 0 % 0 % 0 % 0 m²/s² 0 0 0.62 3
17:00 403 J/kg -3.5 K 0 % 0 % 0 % 0 m²/s² 0 0 -1.76 0
18:00 503 J/kg -3.9 K 0 % 0 % 0 % 0 m²/s² 0 0 -2.94 3
19:00 590 J/kg -2.9 K 0 % 0 % 0 % 0 m²/s² 0 0 -1.28 3
20:00 690 J/kg -3.8 K 0 % 0 % 0 % 0 m²/s² 0 0 -2.99 3
21:00 606 J/kg -3.9 K 0 % 0 % 0 % 0 m²/s² 0 0 -1.92 3
22:00 325 J/kg -4.4 K 0 % 0 % 0 % 0 m²/s² 0 0 -2.15 3
23:00 134 J/kg -4.4 K 0 % 0 % 0 % 0 m²/s² 0 0 -2.15 95
 05:52     21:33    Daglengte: 15:41 Morgen
00:00 0 J/kg -3.8 K 0 % 0 % 0 % 0 m²/s² 0 0 -1.61 80
01:00 270 J/kg -4.2 K 0 % 0 % 0 % 0 m²/s² 0 0 -2.67 95
02:00 243 J/kg -4.3 K 0 % 0 % 0 % 0 m²/s² 0 0 -2.41 95
03:00 222 J/kg -4.3 K 0 % 0 % 0 % 0 m²/s² 0 0 -2.35 3
04:00 377 J/kg -4.5 K 0 % 0 % 0 % 0 m²/s² 0 0 -3.3 80
05:00 576 J/kg -4.8 K 0 % 0 % 0 % 0 m²/s² 0 0 -3.21 80
06:00 635 J/kg -4.3 K 0 % 0 % 0 % 0 m²/s² 0 0 -2.08 95
07:00 676 J/kg -3.2 K 0 % 0 % 0 % 0 m²/s² 0 0 -1.25 80
08:00 684 J/kg -2.9 K 0 % 0 % 0 % 0 m²/s² 0 0 -0.62 95
09:00 719 J/kg -3.0 K 0 % 0 % 0 % 0 m²/s² 0 0 -1.11 2
10:00 881 J/kg -3.8 K 0 % 0 % 0 % 0 m²/s² 0 0 -2.27 95
11:00 882 J/kg -3.5 K 0 % 0 % 0 % 0 m²/s² 0 0 -1.67 80
12:00 860 J/kg -3.6 K 0 % 0 % 0 % 0 m²/s² 0 0 -1.65 2
13:00 841 J/kg -4.1 K 0 % 0 % 0 % 0 m²/s² 0 0 -2.09 2
14:00 605 J/kg -3.5 K 0 % 0 % 0 % 0 m²/s² 0 0 -1.13 2
15:00 571 J/kg -3.4 K 0 % 0 % 0 % 0 m²/s² 0 0 -1.18 3
16:00 724 J/kg -3.8 K 0 % 0 % 0 % 0 m²/s² 0 0 -1.64 2
17:00 820 J/kg -4.4 K 0 % 0 % 0 % 0 m²/s² 0 0 -2.09 3
18:00 795 J/kg -4.2 K 0 % 0 % 0 % 0 m²/s² 0 0 -2.04 3
19:00 795 J/kg -4.0 K 0 % 0 % 0 % 0 m²/s² 0 0 -1.9 3
20:00 716 J/kg -3.9 K 0 % 0 % 0 % 0 m²/s² 0 0 -2.07 3
21:00 555 J/kg -3.5 K 0 % 0 % 0 % 0 m²/s² 0 0 -1.55 3
22:00 442 J/kg -2.9 K 0 % 0 % 0 % 0 m²/s² 0 0 -1.31 3
23:00 291 J/kg -2.2 K 0 % 0 % 0 % 0 m²/s² 0 0 -0.67 3
 05:52     21:34    Daglengte: 15:42 Vrijdag 21 Jun
00:00 174 J/kg -1.6 K 0 % 0 % 0 % 0 m²/s² 0 0 -0.61 3
01:00 182 J/kg -1.7 K 0 % 0 % 0 % 0 m²/s² 0 0 -0.8 3
02:00 154 J/kg -1.2 K 0 % 0 % 0 % 0 m²/s² 0 0 -0.15 61
03:00 86 J/kg -1.1 K 0 % 0 % 0 % 0 m²/s² 0 0 0.04 61
04:00 0 J/kg -0.4 K 0 % 0 % 0 % 0 m²/s² 0 0 0.92 3
05:00 0 J/kg -0.5 K 0 % 0 % 0 % 0 m²/s² 0 0 0.97 3
06:00 0 J/kg -0.4 K 0 % 0 % 0 % 0 m²/s² 0 0 1.37 2
07:00 0 J/kg -0.2 K 0 % 0 % 0 % 0 m²/s² 0 0 1.63 2
08:00 0 J/kg 0.7 K 0 % 0 % 0 % 0 m²/s² 0 0 2.92 3
09:00 0 J/kg 0.6 K 0 % 0 % 0 % 0 m²/s² 0 0 2.55 3
10:00 103 J/kg -0.7 K 0 % 0 % 0 % 0 m²/s² 0 0 0.95 3
11:00 223 J/kg -1.3 K 0 % 0 % 0 % 0 m²/s² 0 0 0.08 2
12:00 203 J/kg -1.6 K 0 % 0 % 0 % 0 m²/s² 0 0 -0.28 3
13:00 323 J/kg -2.4 K 0 % 0 % 0 % 0 m²/s² 0 0 -1.41 3
14:00 248 J/kg -1.9 K 0 % 0 % 0 % 0 m²/s² 0 0 -1.72 3
15:00 145 J/kg -1.4 K 0 % 0 % 0 % 0 m²/s² 0 0 -0.41 3
16:00 400 J/kg -3.2 K 0 % 0 % 0 % 0 m²/s² 0 0 -2.57 3
17:00 566 J/kg -3.7 K 0 % 0 % 0 % 0 m²/s² 0 0 -2.8 3
18:00 939 J/kg -4.4 K 0 % 0 % 0 % 0 m²/s² 0 0 -3.65 2
19:00 1121 J/kg -4.2 K 0 % 0 % 0 % 0 m²/s² 0 0 -3.24 3
20:00 1263 J/kg -5.8 K 0 % 0 % 0 % 0 m²/s² 0 0 -5.08 3
21:00 142 J/kg -3.0 K 0 % 0 % 0 % 0 m²/s² 0 0 -1.8 3
22:00 127 J/kg -3.0 K 0 % 0 % 0 % 0 m²/s² 0 0 -1.23 80
23:00 4 J/kg -1.4 K 0 % 0 % 0 % 0 m²/s² 0 0 -1.28 3
 05:52     21:34    Daglengte: 15:42 Zaterdag 22 Jun
00:00 175 J/kg -1.6 K 0 % 0 % 0 % 0 m²/s² 0 0 0.56 80
01:00 38 J/kg -1.2 K 0 % 0 % 0 % 0 m²/s² 0 0 1.47 80
02:00 0 J/kg -0.4 K 0 % 0 % 0 % 0 m²/s² 0 0 3.29 80
03:00 0 J/kg 0.6 K 0 % 0 % 0 % 0 m²/s² 0 0 4.8 80
04:00 1 J/kg 1.5 K 0 % 0 % 0 % 0 m²/s² 0 0 6.03 80
05:00 2 J/kg 1.9 K 0 % 0 % 0 % 0 m²/s² 0 0 6.19 80
06:00 1 J/kg 1.7 K 0 % 0 % 0 % 0 m²/s² 0 0 5.18 80
07:00 1 J/kg 1.4 K 0 % 0 % 0 % 0 m²/s² 0 0 4.34 80
08:00 2 J/kg 1.0 K 0 % 0 % 0 % 0 m²/s² 0 0 3.49 61
09:00 6 J/kg 1.0 K 0 % 0 % 0 % 0 m²/s² 0 0 3.13 61
10:00 37 J/kg 1.6 K 0 % 0 % 0 % 0 m²/s² 0 0 4.24 3
11:00 45 J/kg 2.8 K 0 % 0 % 0 % 0 m²/s² 0 0 5.35 3
12:00 44 J/kg 3.7 K 0 % 0 % 0 % 0 m²/s² 0 0 4.69 3
Temp Baro Wind Neerslag
  EWN Forecast EWN WRFDA DWD ICON FMI HIRLAM MET Norway GFS
 05:51     21:33    Daglengte: 15:42 Vandaag
14:00 28.5° 1010.7 hPa 7.3 m/s 0.0 mm 27.5° 1010.1 hPa 8.3 m/s 0.0 mm 28.6° 1011.2 hPa 6.4 m/s -2.0 mm 28.5° 1011.2 hPa 8.9 m/s 0.0 mm 28.2° 1010.5 hPa 6.8 m/s 0.0 mm 28.4° 1012.0 hPa 5.9 m/s
17:00 29.5° 1009.5 hPa 6.3 m/s 0.0 mm 28.6° 1009.0 hPa 8.2 m/s 0.0 mm 29.4° 1009.7 hPa 5.6 m/s 0.0 mm 29.9° 1009.6 hPa 8.5 m/s 0.0 mm 29.1° 1009.2 hPa 6.0 m/s 0.0 mm 28.5° 1011.1 hPa 6.7 m/s
20:00 26.0° 1010.5 hPa 2.5 m/s 0.0 mm 25.6° 1009.9 hPa 2.4 m/s 1.1 mm 27.2° 1010.2 hPa 2.2 m/s 0.0 mm 26.0° 1010.8 hPa 2.8 m/s 0.0 mm 25.9° 1010.5 hPa 2.2 m/s 0.0 mm 23.5° 1012.5 hPa 1.8 m/s
23:00 21.3° 1013.4 hPa 1.5 m/s 1.5 mm 22.8° 1011.0 hPa 6.3 m/s 3.2 mm 20.5° 1014.4 hPa 0.9 m/s 1.3 mm 23.0° 1013.0 hPa 1.6 m/s 0.0 mm 18.7° 1013.9 hPa 0.8 m/s 4.3 mm 21.1° 1015.0 hPa 0.8 m/s
 05:52     21:33    Daglengte: 15:41 Morgen
02:00 19.1° 1013.8 hPa 1.2 m/s 2.1 mm 20.0° 1012.9 hPa 1.7 m/s 3.3 mm 18.9° 1014.9 hPa 0.3 m/s 3.5 mm 19.6° 1013.7 hPa 1.0 m/s 0.0 mm 17.4° 1014.0 hPa 1.5 m/s 2.5 mm 19.3° 1015.5 hPa 0.3 m/s
05:00 17.8° 1013.8 hPa 1.3 m/s 0.9 mm 19.1° 1013.1 hPa 1.3 m/s 3.4 mm 18.1° 1014.4 hPa 0.6 m/s 2.0 mm 17.2° 1014.0 hPa 0.9 m/s 0.0 mm 16.4° 1013.8 hPa 1.5 m/s 0.0 mm 18.6° 1015.0 hPa 0.7 m/s
08:00 18.6° 1014.5 hPa 0.9 m/s 3.1 mm 19.4° 1013.5 hPa 1.0 m/s 3.6 mm 18.2° 1015.4 hPa 0.8 m/s 3.9 mm 18.8° 1014.1 hPa 1.3 m/s 0.0 mm 17.8° 1014.8 hPa 0.4 m/s 2.0 mm 19.6° 1015.5 hPa 1.0 m/s
11:00 21.4° 1014.8 hPa 1.2 m/s 0.8 mm 22.4° 1013.9 hPa 0.6 m/s 4.3 mm 20.2° 1016.1 hPa 1.0 m/s 2.3 mm 22.1° 1013.9 hPa 3.2 m/s 0.0 mm 21.6° 1014.7 hPa 0.5 m/s 0.0 mm 22.1° 1015.3 hPa 2.7 m/s
14:00 22.9° 1014.8 hPa 2.1 m/s 0.0 mm 22.8° 1013.8 hPa 4.3 m/s 6.7 mm 23.0° 1016.0 hPa 3.1 m/s 0.2 mm 22.5° 1014.8 hPa 4.3 m/s 0.0 mm 24.2° 1014.2 hPa 0.7 m/s 0.0 mm 25.3° 1014.7 hPa 2.4 m/s
17:00 23.6° 1014.2 hPa 2.9 m/s 1.2 mm 25.2° 1012.7 hPa 2.7 m/s 10.7 mm 23.8° 1014.7 hPa 2.8 m/s 0.0 mm 23.7° 1014.2 hPa 4.3 m/s 0.0 mm 23.4° 1014.0 hPa 3.1 m/s 0.5 mm 25.5° 1014.3 hPa 2.8 m/s
20:00 22.7° 1014.4 hPa 1.9 m/s 0.0 mm 24.7° 1013.1 hPa 4.0 m/s 16.2 mm 22.4° 1015.5 hPa 1.9 m/s 0.0 mm 22.1° 1014.3 hPa 3.3 m/s 0.0 mm 22.6° 1014.3 hPa 1.5 m/s 0.0 mm 23.6° 1015.1 hPa 1.7 m/s
23:00 19.6° 1015.5 hPa 1.9 m/s 1.6 mm 22.4° 1014.0 hPa 3.2 m/s 18.0 mm 20.4° 1015.9 hPa 0.7 m/s 0.1 mm 19.5° 1015.5 hPa 2.4 m/s 0.0 mm 19.4° 1015.4 hPa 1.2 m/s 0.0 mm 19.8° 1016.6 hPa 3.0 m/s
 05:52     21:34    Daglengte: 15:42 Vrijdag 21 Jun
02:00 18.4° 1015.7 hPa 2.1 m/s 0.0 mm 20.3° 1014.5 hPa 2.3 m/s 18.0 mm 19.2° 1016.7 hPa 0.7 m/s 0.2 mm 18.4° 1015.3 hPa 2.3 m/s 0.0 mm 18.1° 1015.5 hPa 2.1 m/s 0.0 mm 18.1° 1016.9 hPa 2.4 m/s
05:00 17.5° 1015.9 hPa 2.7 m/s 0.0 mm 18.0° 1014.3 hPa 2.8 m/s 18.0 mm 17.9° 1016.8 hPa 1.3 m/s 0.1 mm 17.7° 1014.8 hPa 3.8 m/s 0.0 mm 17.2° 1016.0 hPa 2.6 m/s 0.4 mm 16.7° 1017.0 hPa 1.7 m/s
08:00 17.7° 1016.8 hPa 3.4 m/s 0.0 mm 17.9° 1014.1 hPa 3.5 m/s 18.0 mm 18.3° 1017.4 hPa 2.3 m/s 0.0 mm 17.5° 1015.5 hPa 3.9 m/s 0.0 mm 17.5° 1017.1 hPa 3.3 m/s 0.7 mm 17.2° 1017.2 hPa 2.3 m/s
11:00 21.4° 1017.1 hPa 3.7 m/s 0.0 mm 22.8° 1014.5 hPa 4.6 m/s 18.0 mm 21.1° 1017.7 hPa 3.5 m/s 0.0 mm 21.4° 1017.3 hPa 3.4 m/s 0.0 mm 21.4° 1016.7 hPa 3.1 m/s
14:00 24.0° 1016.1 hPa 3.7 m/s 0.0 mm 23.6° 1014.5 hPa 5.0 m/s 18.1 mm 22.9° 1017.0 hPa 3.5 m/s 0.0 mm 24.0° 1016.3 hPa 3.1 m/s 0.0 mm 24.6° 1015.3 hPa 2.6 m/s
17:00 24.5° 1014.9 hPa 3.4 m/s 0.0 mm 23.7° 1012.6 hPa 2.8 m/s 23.0 mm 24.4° 1015.5 hPa 3.7 m/s 0.0 mm 24.4° 1015.3 hPa 3.1 m/s 0.0 mm 24.4° 1014.1 hPa 3.8 m/s
20:00 22.9° 1015.2 hPa 3.4 m/s 0.0 mm 23.5° 1012.1 hPa 2.7 m/s 23.2 mm 23.2° 1016.2 hPa 2.6 m/s 0.1 mm 22.0° 1015.7 hPa 3.2 m/s 0.0 mm 20.5° 1015.2 hPa 3.3 m/s
23:00 19.1° 1015.8 hPa 2.4 m/s 5.3 mm 18.3° 1013.8 hPa 4.5 m/s 26.8 mm 19.7° 1016.4 hPa 1.2 m/s 1.2 mm 19.2° 1016.2 hPa 2.0 m/s 1.4 mm 18.6° 1017.1 hPa 2.8 m/s
 05:52     21:34    Daglengte: 15:42 Zaterdag 22 Jun
02:00 17.5° 1016.0 hPa 3.2 m/s 7.7 mm 17.7° 1013.7 hPa 4.6 m/s 42.9 mm 17.0° 1016.6 hPa 2.8 m/s 1.6 mm 17.8° 1016.2 hPa 2.6 m/s 0.5 mm 17.0° 1017.3 hPa 1.6 m/s
05:00 16.3° 1016.2 hPa 2.6 m/s 11.1 mm 16.7° 1014.1 hPa 4.2 m/s 43.5 mm 14.8° 1017.1 hPa 2.9 m/s 4.2 mm 16.7° 1016.3 hPa 2.3 m/s 5.8 mm 16.5° 1016.9 hPa 1.4 m/s
08:00 16.2° 1017.1 hPa 2.7 m/s 3.8 mm 16.8° 1015.5 hPa 3.8 m/s 43.8 mm 15.2° 1018.4 hPa 1.1 m/s 4.3 mm 16.4° 1017.0 hPa 3.2 m/s 0.8 mm 16.2° 1017.9 hPa 2.4 m/s
11:00 19.1° 1016.8 hPa 2.8 m/s 5.8 mm 19.4° 1016.0 hPa 3.4 m/s 43.9 mm 17.2° 1018.2 hPa 2.4 m/s 1.4 mm 19.5° 1016.6 hPa 2.8 m/s 20.1° 1017.7 hPa 2.2 m/s
14:00 21.6° 1016.4 hPa 2.6 m/s 0.0 mm 20.7° 1015.5 hPa 4.9 m/s 44.0 mm 20.3° 1017.7 hPa 2.2 m/s 0.0 mm 22.7° 1016.3 hPa 2.4 m/s 22.6° 1016.7 hPa 3.3 m/s
17:00 22.2° 1016.3 hPa 2.6 m/s 13.3 mm 22.1° 1016.4 hPa 2.5 m/s 23.8° 1015.7 hPa 3.4 m/s 13.3 mm
20:00 21.8° 1016.4 hPa 2.6 m/s 13.4 mm 21.8° 1016.4 hPa 2.6 m/s 22.1° 1016.3 hPa 2.7 m/s 13.4 mm
23:00 18.8° 1016.9 hPa 2.2 m/s 13.4 mm 18.8° 1016.8 hPa 2.2 m/s 18.4° 1017.7 hPa 2.8 m/s 13.4 mm
 05:52     21:34    Daglengte: 15:42 Zondag 23 Jun
02:00 15.9° 1017.2 hPa 1.8 m/s 13.4 mm 15.8° 1017.2 hPa 1.8 m/s 16.5° 1017.3 hPa 1.7 m/s 13.4 mm
05:00 16.6° 1017.1 hPa 1.6 m/s 13.4 mm 16.8° 1017.2 hPa 1.6 m/s 15.0° 1016.9 hPa 1.4 m/s 13.4 mm
08:00 17.6° 1017.1 hPa 1.4 m/s 13.4 mm 17.7° 1017.1 hPa 1.4 m/s 16.7° 1017.1 hPa 1.0 m/s 13.4 mm
11:00 21.8° 1016.7 hPa 1.2 m/s 13.4 mm 21.7° 1016.8 hPa 1.2 m/s 23.1° 1016.5 hPa 0.6 m/s 13.4 mm
14:00 25.9° 1016.4 hPa 1.1 m/s 13.4 mm 25.7° 1016.4 hPa 1.1 m/s 28.2° 1016.0 hPa 1.2 m/s 13.4 mm
17:00 26.1° 1015.7 hPa 1.0 m/s 13.4 mm 25.7° 1015.8 hPa 1.0 m/s 30.1° 1015.1 hPa 1.3 m/s 13.4 mm
20:00 25.9° 1015.2 hPa 0.8 m/s 13.4 mm 25.7° 1015.2 hPa 0.8 m/s 28.1° 1015.6 hPa 1.1 m/s 13.4 mm
23:00 22.6° 1016.0 hPa 1.1 m/s 13.4 mm 22.5° 1015.9 hPa 1.1 m/s 23.3° 1017.9 hPa 0.6 m/s 13.4 mm
 05:53     21:34    Daglengte: 15:41 Maandag 24 Jun
02:00 19.6° 1016.7 hPa 1.5 m/s 13.4 mm 19.4° 1016.5 hPa 1.5 m/s 21.2° 1018.4 hPa 1.0 m/s 13.4 mm
05:00 19.3° 1017.0 hPa 1.2 m/s 13.4 mm 19.3° 1016.9 hPa 1.2 m/s 19.5° 1018.2 hPa 1.1 m/s 13.4 mm
08:00 19.4° 1017.3 hPa 1.0 m/s 13.4 mm 19.2° 1017.2 hPa 0.9 m/s 21.1° 1018.8 hPa 1.6 m/s 13.4 mm
11:00 25.2° 1016.8 hPa 2.4 m/s 13.4 mm 25.0° 1016.7 hPa 2.4 m/s 26.9° 1018.3 hPa 2.6 m/s 13.4 mm
14:00 30.9° 1016.2 hPa 3.9 m/s 13.4 mm 30.8° 1016.1 hPa 3.9 m/s 31.8° 1017.6 hPa 3.6 m/s 13.4 mm
17:00 30.0° 1015.8 hPa 3.5 m/s 13.4 mm 29.7° 1015.8 hPa 3.4 m/s 33.5° 1016.9 hPa 4.1 m/s 13.4 mm
20:00 28.8° 1015.6 hPa 3.0 m/s 13.4 mm 28.6° 1015.4 hPa 2.9 m/s 30.6° 1017.5 hPa 3.5 m/s 13.4 mm
23:00 25.3° 1017.0 hPa 3.4 m/s 13.4 mm 25.2° 1016.8 hPa 3.5 m/s 25.9° 1019.7 hPa 2.4 m/s 13.4 mm
 05:53     21:34    Daglengte: 15:41 Dinsdag 25 Jun
02:00 21.9° 1018.2 hPa 3.9 m/s 13.4 mm 21.8° 1018.1 hPa 4.0 m/s 23.3° 1019.7 hPa 2.8 m/s 13.4 mm
05:00 21.6° 1018.7 hPa 3.1 m/s 13.4 mm 21.6° 1018.7 hPa 3.1 m/s 21.5° 1019.2 hPa 2.7 m/s 13.4 mm
08:00 21.5° 1019.3 hPa 2.4 m/s 13.4 mm 21.4° 1019.2 hPa 2.3 m/s 22.6° 1019.8 hPa 3.0 m/s 13.4 mm
11:00 27.2° 1018.6 hPa 4.0 m/s 13.4 mm 27.0° 1018.5 hPa 4.0 m/s 29.0° 1019.1 hPa 4.4 m/s 13.4 mm
14:00 32.7° 1017.8 hPa 5.7 m/s 13.4 mm 32.6° 1017.8 hPa 5.7 m/s 34.2° 1017.8 hPa 5.4 m/s 13.4 mm
17:00 31.9° 1017.1 hPa 4.2 m/s 13.4 mm 31.6° 1017.1 hPa 4.2 m/s 35.4° 1017.0 hPa 4.8 m/s 13.4 mm
20:00 30.7° 1016.6 hPa 2.8 m/s 13.4 mm 30.5° 1016.5 hPa 2.7 m/s 32.7° 1017.3 hPa 3.4 m/s 13.4 mm
23:00 27.1° 1017.8 hPa 3.5 m/s 13.4 mm 27.1° 1017.6 hPa 3.6 m/s 27.1° 1019.6 hPa 2.9 m/s 13.4 mm
 05:53     21:34    Daglengte: 15:41 Woensdag 26 Jun
02:00 23.8° 1018.8 hPa 4.4 m/s 13.4 mm 23.7° 1018.8 hPa 4.5 m/s 24.4° 1019.2 hPa 2.8 m/s 13.4 mm
05:00 23.7° 1019.0 hPa 3.9 m/s 13.4 mm 23.9° 1019.0 hPa 4.0 m/s 22.4° 1018.9 hPa 2.3 m/s 13.4 mm
08:00 24.0° 1019.3 hPa 3.5 m/s 13.4 mm 24.0° 1019.3 hPa 3.6 m/s 23.7° 1018.9 hPa 2.4 m/s 13.4 mm
11:00 28.9° 1018.7 hPa 5.1 m/s 13.4 mm 28.8° 1018.7 hPa 5.2 m/s 29.7° 1018.2 hPa 3.8 m/s 13.4 mm
14:00 33.7° 1018.0 hPa 6.6 m/s 13.4 mm 33.6° 1018.1 hPa 6.8 m/s 34.3° 1017.3 hPa 4.1 m/s 13.4 mm
20:00 32.0° 1016.5 hPa 3.9 m/s 13.4 mm 32.0° 1016.5 hPa 3.9 m/s 32.5° 1016.4 hPa 3.4 m/s 13.4 mm
 05:54     21:34    Daglengte: 15:40 Donderdag 27 Jun
02:00 25.0° 1018.3 hPa 4.9 m/s 13.4 mm 24.9° 1018.4 hPa 5.1 m/s 25.5° 1017.0 hPa 2.9 m/s 13.4 mm
08:00 24.7° 1018.4 hPa 3.1 m/s 13.4 mm 24.7° 1018.6 hPa 3.0 m/s 24.5° 1016.0 hPa 4.0 m/s 13.4 mm
14:00 34.6° 1016.7 hPa 6.3 m/s 13.4 mm 34.6° 1016.9 hPa 6.3 m/s 34.6° 1014.6 hPa 6.7 m/s 13.4 mm
20:00 33.0° 1014.9 hPa 4.0 m/s 13.4 mm 33.0° 1014.9 hPa 3.9 m/s 32.4° 1014.8 hPa 4.6 m/s 13.4 mm
 05:54     21:34    Daglengte: 15:40 Vrijdag 28 Jun
02:00 24.9° 1016.7 hPa 3.6 m/s 13.4 mm 24.9° 1016.5 hPa 3.8 m/s 25.0° 1018.7 hPa 1.7 m/s 13.4 mm
08:00 23.7° 1016.7 hPa 2.6 m/s 13.4 mm 23.7° 1016.4 hPa 2.7 m/s 23.6° 1020.2 hPa 1.8 m/s 13.4 mm
14:00 35.1° 1014.6 hPa 3.8 m/s 13.4 mm 35.5° 1014.2 hPa 3.9 m/s 30.4° 1019.2 hPa 2.3 m/s 13.4 mm
20:00 33.1° 1012.1 hPa 3.5 m/s 13.4 mm 33.5° 1011.6 hPa 3.4 m/s 29.0° 1018.2 hPa 4.2 m/s 13.4 mm
 05:55     21:34    Daglengte: 15:39 Zaterdag 29 Jun
02:00 25.2° 1013.7 hPa 5.2 m/s 13.4 mm 25.4° 1013.2 hPa 5.4 m/s 23.2° 1019.7 hPa 2.4 m/s 13.4 mm
08:00 19.7° 1014.1 hPa 0.4 m/s 0.1 mm
14:00 28.2° 1012.6 hPa 0.8 m/s 0.2 mm
20:00 26.3° 1012.5 hPa 1.4 m/s 0.6 mm
 05:55     21:34    Daglengte: 15:39 Zondag 30 Jun
02:00 18.0° 1014.3 hPa 0.5 m/s 0.4 mm
08:00 19.4° 1014.6 hPa 0.9 m/s 0.7 mm
14:00 26.6° 1013.8 hPa 1.5 m/s 0.2 mm
20:00 24.6° 1013.7 hPa 1.9 m/s 1.2 mm
 05:56     21:34    Daglengte: 15:38 Maandag 01 Jul
02:00 16.6° 1015.7 hPa 0.8 m/s 0.5 mm
08:00 17.8° 1015.6 hPa 0.7 m/s 0.6 mm
14:00 24.1° 1014.6 hPa 2.2 m/s 0.8 mm
20:00 22.2° 1014.7 hPa 2.2 m/s 1.6 mm
 05:57     21:33    Daglengte: 15:36 Dinsdag 02 Jul
02:00 15.1° 1016.6 hPa 1.0 m/s 0.6 mm
08:00 16.0° 1016.4 hPa 1.3 m/s 0.3 mm
14:00 22.8° 1015.1 hPa 2.4 m/s 1.0 mm
20:00 21.1° 1015.3 hPa 2.9 m/s 1.7 mm
 05:57     21:33    Daglengte: 15:36 Woensdag 03 Jul
02:00 13.8° 1017.4 hPa 1.4 m/s 1.1 mm
08:00 15.2° 1017.4 hPa 1.6 m/s 0.4 mm
14:00 21.8° 1016.3 hPa 2.6 m/s 0.5 mm
20:00 21.1° 1016.3 hPa 2.5 m/s 0.7 mm
 05:58     21:33    Daglengte: 15:35 Donderdag 04 Jul
02:00 13.6° 1018.0 hPa 1.5 m/s 0.6 mm
08:00 15.3° 1018.0 hPa 1.6 m/s 0.6 mm
FMI Hirlam - 7.5 km EWN WRFDA - 12 km DWD ICON - 7 km GFS - 25 km Basiskaart






























































Updatetijd (Europe/Amsterdam) Resolutie Lengte Stap
FMI Hirlam 07:00, 13:00, 19:00, 01:00 7.5 km 49h 1h
EWN WRFDA 10:15, 16:15, 22:15, 04:15 12 km 73h 1h
DWD ICON 11:45, 17:45, 23:45, 05:45 7 km 75h 1h
GFS 08:45, 14:45, 20:45, 02:45 25 km 237h 3h
30+ mm
25-30 mm
20-25 mm
15-20 mm
10-15 mm
6-10 mm
4-6 mm
2-4 mm
1-2 mm
0.5-1 mm
0.2-0.5 mm
0.1-0.2 mm
30+ mm
25-30 mm
20-25 mm
15-20 mm
10-15 mm
6-10 mm
4-6 mm
2-4 mm
1-2 mm
0.5-1 mm
0.2-0.5 mm
0.1-0.2 mm
Sneeuwval
Natte sneeuw
Hagel
Vorst
30+ mm
25-30 mm
20-25 mm
15-20 mm
10-15 mm
6-10 mm
4-6 mm
2-4 mm
1-2 mm
0.5-1 mm
0.2-0.5 mm
0.1-0.2 mm
Sneeuwval
Natte sneeuw
Hagel
Vorst
Onweer
50 mm
40 mm
30 mm
26 mm
22 mm
18 mm
14 mm
10 mm
9 mm
8 mm
7 mm
6 mm
5 mm
4.5 mm
4 mm
3.5 mm
3 mm
2.5 mm
2 mm
1.5 mm
1 mm
0.8 mm
0.6 mm
0.4 mm
0.2 mm
0.05 mm
35°
30°
25°
20°
15°
10°
-5°
-10°
-15°
-20°
-25°
-30°
-35°
33> m/s
29 m/s
25 m/s
21 m/s
17 m/s
14 m/s
11 m/s
8 m/s
5 m/s
3 m/s
0 m/s
2600 J/kg
2400 J/kg
2200 J/kg
2000 J/kg
1800 J/kg
1600 J/kg
1400 J/kg
1200 J/kg
1000 J/kg
800 J/kg
600 J/kg
400 J/kg
200 J/kg
70 dBZ
65 dBZ
60 dBZ
55 dBZ
50 dBZ
45 dBZ
40 dBZ
35 dBZ
30 dBZ
25 dBZ
20 dBZ
15 dBZ
10 dBZ
5 dBZ
-1 K
-2 K
-3 K
-4 K
-5 K
-6 K
-7 K
-8 K
-9 K
950 m²/s²
900 m²/s²
850 m²/s²
800 m²/s²
750 m²/s²
700 m²/s²
650 m²/s²
600 m²/s²
550 m²/s²
500 m²/s²
450 m²/s²
400 m²/s²
350 m²/s²
300 m²/s²
250 m²/s²
200 m²/s²
150 m²/s²
100 m²/s²
46 m/s
44 m/s
42 m/s
40 m/s
38 m/s
36 m/s
34 m/s
32 m/s
30 m/s
28 m/s
26 m/s
24 m/s
22 m/s
20 m/s
16 m/s
12 m/s
8 m/s
4 m/s
30 m/s
28 m/s
26 m/s
24 m/s
22 m/s
20 m/s
18 m/s
16 m/s
14 m/s
12 m/s
10 m/s
8 m/s
6 m/s
4 m/s
2 m/s
3.0
2.8
2.6
2.4
2.2
2.0
1.8
1.6
1.4
1.2
1.0
0.8
0.6
0.4
0.2
15
14
13
12
11
10
9
8
7
6
5
4
3
2
1
90%
80%
70%
60%
50%
40%
30%
20%
10%
42
40
38
36
34
32
30
28
26
24